Home   Weather   Sweden   Malmö   Past weeks
Flag for Sweden

Past Weather in Malmö, Sweden — Yesterday and Last 2 Weeks

Currently: 32 °F. Low clouds. (Weather station: Malmo / Sturup, Sweden). See more current weather

Past Weather in Malmö — Graph

°F

Malmö Temperature Yesterday

Maximum temperature yesterday: 46 °F (at 12:20 pm)
Minimum temperature yesterday: 30 °F (at 6:50 am)
Average temperature yesterday: 38 °F

High & Low Weather Summary for the Past Weeks

 TemperatureHumidityPressure
High50 °F (Feb 16, 2:50 pm)100% (Feb 12, 8:20 pm)30.51 "Hg (Feb 12, 8:20 pm)
Low27 °F (Feb 18, 2:20 am)66% (Feb 17, 1:20 pm)28.82 "Hg (Feb 23, 2:50 am)
Average40 °F92%29.81 "Hg
* Reported Feb 12 8:20 pm — Feb 27 8:50 pm, Malmö. Weather by CustomWeather, © 2024

Note: Actual official high and low records may vary slightly from our data, if they occured in-between our weather recording intervals... More about our weather records

Malmö Weather History for the Previous 24 Hours

Scroll right to see more
 ConditionsComfort  
Time TempWeatherWind HumidityBarometerVisibility
8:50 pm
Tue, Feb 27
32 °FIce fog.3 mph100%30.09 "Hg0 mi
8:20 pm32 °FFog.No wind100%30.09 "Hg0 mi
7:50 pm32 °FIce fog.1 mph100%30.07 "Hg0 mi
7:20 pm32 °FIce fog.2 mph100%30.07 "Hg0 mi
6:50 pm32 °FIce fog.3 mph100%30.07 "Hg0 mi
6:20 pm32 °FIce fog.3 mph100%30.07 "Hg0 mi
5:50 pm32 °FFog.3 mph100%30.07 "Hg0 mi
5:20 pm32 °FFog.3 mph100%30.07 "Hg0 mi
4:50 pm32 °FFog.2 mph100%30.07 "Hg0 mi
4:20 pm32 °FFog.2 mph100%30.07 "Hg0 mi
3:20 pm34 °FFog.2 mph100%30.04 "Hg0 mi
2:50 pm32 °FFog.No wind100%30.07 "Hg0 mi
2:20 pm34 °FFog.3 mph100%30.07 "Hg0 mi
1:50 pm34 °FFog.1 mph100%30.07 "Hg0 mi
1:20 pm32 °FFog.1 mph100%30.07 "Hg0 mi
12:50 pm32 °FIce fog.3 mph100%30.07 "Hg0 mi
12:20 pm32 °FIce fog.5 mph100%30.07 "Hg0 mi
11:50 am32 °FIce fog.2 mph100%30.07 "Hg0 mi
11:20 am30 °FIce fog.2 mph100%30.07 "Hg0 mi
10:50 am30 °FIce fog.1 mph100%30.07 "Hg0 mi
10:20 am30 °FIce fog.2 mph100%30.07 "Hg0 mi
9:50 am30 °FIce fog.3 mph100%30.07 "Hg0 mi
9:20 am28 °FIce fog.3 mph100%30.07 "Hg0 mi
8:50 am30 °FIce fog.2 mph100%30.04 "Hg0 mi
8:20 am28 °FIce fog.3 mph100%30.04 "Hg0 mi
7:50 am28 °FIce fog.3 mph100%30.04 "Hg0 mi
7:20 am28 °FIce fog.2 mph100%30.04 "Hg0 mi
6:50 am27 °FIce fog.3 mph100%30.04 "Hg1 mi
6:20 am28 °FLight fog.5 mph100%30.04 "Hg2 mi
5:50 am28 °FLight fog.3 mph100%30.04 "Hg4 mi
5:20 am27 °FLight fog.3 mph100%30.01 "Hg6 mi
4:50 am28 °FLight fog.5 mph100%30.01 "Hg5 mi
4:20 am28 °FLight fog.5 mph100%30.01 "HgN/A
3:50 am28 °FFog.3 mph100%30.01 "Hg6 mi
2:50 am30 °FClear.3 mph100%30.01 "Hg10 mi
2:20 am30 °FPassing clouds.3 mph100%30.01 "HgN/A
1:50 am30 °FLight fog.7 mph100%29.98 "HgN/A
12:20 am32 °FLight fog.5 mph100%29.98 "Hg5 mi
11:50 pm
Mon, Feb 26
34 °FLight fog.6 mph100%29.98 "Hg3 mi
11:20 pm32 °FLight fog.7 mph100%29.98 "Hg5 mi
10:50 pm34 °FLight fog.7 mph100%29.98 "Hg5 mi
10:20 pm34 °FClear.8 mph93%29.95 "Hg10 mi
Weather by CustomWeather, © 2024

See weather overview